Date,TemperatureHighF,TemperatureAvgF,TemperatureLowF,DewpointHighF,DewpointAvgF,DewpointLowF,HumidityHigh,HumidityAvg,HumidityLow,PressureMaxIn,PressureMinIn,WindSpeedMaxMPH,WindSpeedAvgMPH,GustSpeedMaxMPH,PrecipitationSumIn
2013-3-1,44,40,35,37,32,29,92,73,61,29.71,29.56,2,0,4,0.00
2013-3-2,50,40,34,32,29,27,75,64,49,29.71,29.65,2,0,3,0.00
2013-3-3,49,39,35,35,30,26,89,72,57,29.68,29.59,3,0,3,0.00
2013-3-4,45,37,32,30,26,23,80,64,44,29.76,29.61,5,0,6,0.00
2013-3-5,52,40,33,33,29,24,81,66,47,30.10,29.76,4,0,4,0.00
2013-3-6,42,38,36,36,34,31,90,84,68,30.14,30.07,7,1,11,0.13
2013-3-7,37,34,32,33,31,30,96,87,77,30.10,30.01,5,0,6,0.15
2013-3-8,40,34,31,34,30,26,92,85,67,30.18,29.97,5,0,6,0.10
2013-3-9,49,37,30,34,28,22,91,72,50,30.39,30.17,3,0,4,1.06
2013-3-10,46,37,29,35,31,27,92,80,62,30.45,30.35,2,0,4,0.00
2013-3-11,56,44,37,41,37,33,90,77,53,30.37,30.18,9,0,9,0.00
2013-3-12,58,51,44,54,48,41,94,90,76,30.19,29.75,8,0,12,0.35
2013-3-13,59,47,38,52,33,22,94,62,32,29.81,29.72,4,0,4,0.00
2013-3-14,41,34,25,26,17,8,67,50,38,29.87,29.75,4,0,6,0.00
2013-3-15,45,33,22,28,14,7,71,48,22,29.91,29.67,9,0,10,0.00
2013-3-16,45,37,30,28,16,9,72,45,25,29.91,29.70,4,0,5,0.00
2013-3-17,47,35,26,19,12,6,66,42,20,30.35,29.91,4,0,5,0.00
2013-3-18,44,31,21,28,11,2,89,45,23,30.50,30.28,5,0,9,0.00
2013-3-19,37,34,30,35,32,28,94,93,89,30.28,29.65,7,0,7,0.62
2013-3-20,42,33,27,28,24,20,91,70,46,29.85,29.72,6,0,10,0.48
2013-3-21,40,33,26,30,25,19,88,74,50,29.86,29.64,2,0,5,0.08
2013-3-22,46,36,30,29,23,19,88,59,38,29.78,29.63,3,0,7,0.00
2013-3-23,47,38,30,25,22,20,74,55,37,29.82,29.66,5,0,7,0.00
2013-3-24,55,42,32,31,26,22,72,54,35,29.85,29.76,3,0,3,0.00
2013-3-25,49,40,34,35,31,27,79,70,48,29.80,29.55,5,0,6,0.00
2013-3-26,57,44,36,32,26,20,77,52,29,29.81,29.56,4,0,5,0.00
2013-3-27,62,46,33,33,26,22,67,47,27,29.90,29.77,3,0,3,0.00
2013-3-28,51,44,38,37,34,31,89,69,47,30.04,29.90,3,0,4,0.01
2013-3-29,62,49,36,37,33,29,81,56,35,30.08,29.99,3,0,3,0.00
2013-3-30,66,51,39,34,26,15,72,43,16,30.13,30.03,3,0,3,0.00
2013-3-31,63,48,32,42,28,22,80,52,22,30.16,29.77,12,1,12,0.01